Cairns, Australia

5:12 AM AEST on December 08, 2016 (GMT +1000)
Cairns International

Weather History for YBCS - April, 2013

Change the Weather History Date:

Thursday, April 18, 2013

  Actual Average Record
Temperature  
Mean Temperature 78 °F -  
Max Temperature 86 °F 81 °F 87 °F (1998)
Min Temperature 69 °F 69 °F 66 °F (2008)
Cooling Degree Days 12    
Growing Degree Days 28 (Base 50)    
Moisture  
Dew Point 69 °F    
Average Humidity 74    
Maximum Humidity 100    
Minimum Humidity 44    
Precipitation  
Precipitation 0.00 in - - ()
Sea Level Pressure  
Sea Level Pressure 29.91 in    
Wind  
Wind Speed 6 mph ()    
Max Wind Speed 15 mph    
Max Gust Speed -    
Visibility 7.0 miles    
Events      
Averages and records for this station are not official NWS values.
T = Trace of Precipitation, MM = Missing Value Source: Averaged Metar Reports

Daily Weather History Graph

Daily Weather History Graph

Search for Another Location

Airport or City:

Trip Planner

Search our weather history database for the weather conditions in past years. The results will help you decide how hot, cold, wet, or windy it might be!

Date:

Astronomy

Apr. 18, 2013 Rise Set
Actual Time 6:26 AM AEST 6:06 PM AEST
Civil Twilight 6:04 AM AEST 6:28 PM AEST
Nautical Twilight 5:38 AM AEST 6:53 PM AEST
Astronomical Twilight 5:13 AM AEST 7:19 PM AEST
Moon 12:30 PM AEST (4/18) No Moon Set
Length of Visible Light 12h 24m
Length of Day
11h 40m
Waxing Crescent, 46% of the Moon is Illuminated
Apr 18
Waxing Crescent
Apr 18
First Quarter
Apr 26
Full
May 2
Last Quarter
May 10
New

Hourly Weather History & Observations

Time (AEST) Temp. Heat Index Dew Point Humidity Pressure Visibility Wind Dir Wind Speed Gust Speed Precip Events Conditions
12:00 AM 73 °F - 71 °F 89% 29.91 in - NNE 3.5 mph - -  
12:00 AM 73.4 °F - 69.8 °F 88% 29.92 in - NNE 3.5 mph - N/A   Clear
12:30 AM 73.4 °F - 69.8 °F 88% 29.89 in - SSE 8.1 mph - N/A   Clear
1:00 AM 71.6 °F - 69.8 °F 94% 29.89 in - West 3.5 mph - N/A   Clear
1:30 AM 71.6 °F - 69.8 °F 94% 29.89 in 6.2 mi Calm Calm - N/A   Partly Cloudy
2:00 AM 71.6 °F - 69.8 °F 94% 29.89 in 6.2 mi West 4.6 mph - N/A   Partly Cloudy
2:30 AM 71.6 °F - 69.8 °F 94% 29.86 in 6.2 mi WNW 4.6 mph - N/A   Partly Cloudy
3:00 AM 71 °F - 69 °F 93% 29.88 in - SSW 1.2 mph - -  
3:00 AM 69.8 °F - 69.8 °F 100% 29.86 in - SSW 1.2 mph - N/A   Clear
3:30 AM 71.6 °F - 69.8 °F 94% 29.89 in - South 5.8 mph - N/A   Clear
4:00 AM 72 °F - 69 °F 85% 29.89 in - South 3.5 mph - -  
4:00 AM 71.6 °F - 68.0 °F 88% 29.89 in 6.2 mi South 3.5 mph - N/A   Partly Cloudy
4:30 AM 69.8 °F - 69.8 °F 100% 29.89 in 6.2 mi West 2.3 mph - N/A   Partly Cloudy
5:00 AM 71.6 °F - 68.0 °F 88% 29.89 in 6.2 mi South 2.3 mph - N/A   Partly Cloudy
5:30 AM 69.8 °F - 68.0 °F 94% 29.89 in 6.2 mi West 4.6 mph - N/A   Partly Cloudy
6:00 AM 69.8 °F - 68.0 °F 94% 29.92 in 6.2 mi North 1.2 mph - N/A   Partly Cloudy
6:30 AM 69.8 °F - 68.0 °F 94% 29.92 in 6.2 mi Calm Calm - N/A   Partly Cloudy
7:00 AM 71 °F - 69 °F 91% 29.95 in - NW 1.2 mph - -  
7:00 AM 69.8 °F - 69.8 °F 100% 29.92 in 6.2 mi NW 1.2 mph - N/A   Partly Cloudy
7:30 AM 71.6 °F - 69.8 °F 94% 29.95 in 6.2 mi WNW 3.5 mph - N/A   Partly Cloudy
8:00 AM 75.2 °F - 68.0 °F 78% 29.95 in 6.2 mi SE 11.5 mph - N/A   Partly Cloudy
8:30 AM 77.0 °F - 69.8 °F 78% 29.95 in 6.2 mi ESE 9.2 mph - N/A   Partly Cloudy
9:00 AM 80 °F - 69 °F 62% 29.96 in 19 mi SE 10.4 mph - -   Partly Cloudy
9:00 AM 80.6 °F 83.9 °F 69.8 °F 70% 29.95 in 6.2 mi SE 10.4 mph - N/A   Partly Cloudy
9:30 AM 80.6 °F 83.9 °F 69.8 °F 70% 29.95 in 6.2 mi South 10.4 mph - N/A   Partly Cloudy
10:00 AM 82 °F - 69 °F 56% 29.97 in - South 9.2 mph - -  
10:00 AM 82.4 °F 85.4 °F 68.0 °F 62% 29.95 in 6.2 mi South 9.2 mph - N/A   Partly Cloudy
10:30 AM 84.2 °F 87.3 °F 68.0 °F 58% 29.95 in 6.2 mi South 9.2 mph - N/A   Partly Cloudy
11:00 AM 84.2 °F 87.3 °F 68.0 °F 58% 29.95 in 6.2 mi SE 8.1 mph - N/A   Partly Cloudy
11:30 AM 84.2 °F 87.3 °F 68.0 °F 58% 29.92 in 6.2 mi ESE 8.1 mph - N/A   Partly Cloudy
12:00 PM 84 °F - 68 °F 50% 29.92 in 19 mi ESE 9.2 mph - -   Partly Cloudy
12:00 PM 84.2 °F 87.3 °F 68.0 °F 58% 29.92 in 6.2 mi ESE 9.2 mph - N/A   Partly Cloudy
12:30 PM 86.0 °F 87.3 °F 64.4 °F 48% 29.89 in 6.2 mi ENE 9.2 mph - N/A   Partly Cloudy
1:00 PM 86 °F - 68 °F 45% 29.90 in - NE 11.5 mph - -  
1:00 PM 86.0 °F 89.4 °F 68.0 °F 55% 29.89 in 6.2 mi NE 11.5 mph - N/A   Partly Cloudy
1:30 PM 86.0 °F 89.4 °F 68.0 °F 55% 29.86 in 6.2 mi ENE 12.7 mph - N/A   Partly Cloudy
2:00 PM 86.0 °F 89.4 °F 68.0 °F 55% 29.86 in 6.2 mi ENE 13.8 mph - N/A   Partly Cloudy
2:30 PM 86.0 °F 88.2 °F 66.2 °F 51% 29.86 in 6.2 mi East 13.8 mph - N/A   Partly Cloudy
3:00 PM 85 °F - 66 °F 44% 29.86 in 19 mi East 15.0 mph - -   Partly Cloudy
3:00 PM 86.0 °F 88.2 °F 66.2 °F 51% 29.86 in 6.2 mi East 15.0 mph - N/A   Partly Cloudy
3:30 PM 84.2 °F 86.6 °F 66.2 °F 55% 29.83 in 6.2 mi East 15.0 mph - N/A   Partly Cloudy
4:00 PM 85 °F - 67 °F 46% 29.86 in - East 12.7 mph - -  
4:00 PM 84.2 °F 87.3 °F 68.0 °F 58% 29.86 in 6.2 mi East 12.7 mph - N/A   Partly Cloudy
4:30 PM 84.2 °F 87.3 °F 68.0 °F 58% 29.86 in 6.2 mi ENE 11.5 mph - N/A   Partly Cloudy
5:00 PM 84.2 °F 86.6 °F 66.2 °F 55% 29.86 in 6.2 mi ENE 11.5 mph - N/A   Partly Cloudy
5:30 PM 82.4 °F 85.4 °F 68.0 °F 62% 29.89 in 6.2 mi SE 11.5 mph - N/A   Partly Cloudy
6:00 PM 80 °F - 69 °F 61% 29.89 in - SE 9.2 mph - -  
6:00 PM 80.6 °F 83.9 °F 69.8 °F 70% 29.89 in 6.2 mi SE 9.2 mph - N/A   Partly Cloudy
6:30 PM 78.8 °F - 69.8 °F 74% 29.89 in 6.2 mi SE 10.4 mph - N/A   Mostly Cloudy
7:00 PM 78 °F - 69 °F 68% 29.92 in - SSE 10.4 mph - -  
7:00 PM 78.8 °F - 69.8 °F 74% 29.89 in 6.2 mi SSE 10.4 mph - N/A   Scattered Clouds
7:30 PM 77.0 °F - 69.8 °F 78% 29.92 in 6.2 mi South 6.9 mph - N/A   Partly Cloudy
8:00 PM 77.0 °F - 71.6 °F 83% 29.92 in 6.2 mi South 8.1 mph - N/A   Partly Cloudy
8:30 PM 77.0 °F - 69.8 °F 78% 29.95 in 6.2 mi South 5.8 mph - N/A   Partly Cloudy
9:00 PM 76 °F - 70 °F 77% 29.95 in - South 5.8 mph - -  
9:00 PM 77.0 °F - 69.8 °F 78% 29.95 in 6.2 mi South 5.8 mph - N/A   Partly Cloudy
9:30 PM 77.0 °F - 69.8 °F 78% 29.95 in 6.2 mi SSW 5.8 mph - N/A   Partly Cloudy
10:00 PM 75 °F - 70 °F 80% 29.96 in - SSE 5.8 mph - -  
10:00 PM 75.2 °F - 69.8 °F 83% 29.95 in 6.2 mi SSE 5.8 mph - N/A   Partly Cloudy
10:30 PM 75.2 °F - 69.8 °F 83% 29.95 in 6.2 mi South 6.9 mph - N/A   Partly Cloudy
11:00 PM 75.2 °F - 69.8 °F 83% 29.95 in 6.2 mi South 4.6 mph - N/A   Partly Cloudy
11:30 PM 75.2 °F - 69.8 °F 83% 29.95 in 6.2 mi South 5.8 mph - N/A   Partly Cloudy